EN

Hourly Weather Manchester

Today, 15 June, Tuesday

Time Temperature Precipitation Wind Pressure Humidity
00:00 +10°C° 0 mm 1 mps 762 mmHg 89%
01:00 +10°C° 0 mm 1 mps 762 mmHg 89%
02:00 +10°C° 0 mm 1 mps 762 mmHg 90%
03:00 +9°C° 0 mm 1 mps 762 mmHg 90%
04:00 +9°C° 0 mm 0 mps 762 mmHg 86%
05:00 +10°C° 0 mm 0 mps 762 mmHg 83%
06:00 +11°C° 0 mm 0 mps 762 mmHg 79%
07:00 +14°C° 0 mm 1 mps 762 mmHg 72%
08:00 +15°C° 0 mm 1 mps 762 mmHg 65%
09:00 +17°C° 0 mm 2 mps 761 mmHg 58%
10:00 +18°C° 0 mm 2 mps 761 mmHg 55%
11:00 +19°C° 0 mm 2 mps 760 mmHg 52%
12:00 +20°C° 0 mm 3 mps 760 mmHg 49%
13:00 +20°C° 0 mm 3 mps 760 mmHg 49%
14:00 +21°C° 0 mm 3 mps 759 mmHg 49%
15:00 +21°C° 0 mm 4 mps 759 mmHg 49%
16:00 +21°C° 0 mm 4 mps 758 mmHg 54%
17:00 +21°C° 0 mm 3 mps 758 mmHg 58%
18:00 +21°C° 0 mm 3 mps 757 mmHg 62%
19:00 +19°C° 0 mm 3 mps 757 mmHg 68%
20:00 +17°C° 0 mm 2 mps 757 mmHg 75%
21:00 +16°C° 0 mm 2 mps 756 mmHg 82%
22:00 +15°C° 0 mm 2 mps 756 mmHg 82%
23:00 +15°C° 0 mm 2 mps 756 mmHg 82%

Tomorrow, 16 June, Wednesday

Time Temperature Precipitation Wind Pressure Humidity
00:00 +14°C° 0 mm 2 mps 756 mmHg 82%
01:00 +13°C° 0 mm 2 mps 755 mmHg 79%
02:00 +13°C° 0 mm 2 mps 755 mmHg 76%
03:00 +13°C° 0 mm 2 mps 755 mmHg 74%
04:00 +13°C° 0 mm 2 mps 754 mmHg 71%
05:00 +14°C° 0 mm 2 mps 754 mmHg 69%
06:00 +15°C° 0 mm 2 mps 753 mmHg 67%
07:00 +16°C° 0 mm 3 mps 753 mmHg 65%
08:00 +18°C° 0 mm 3 mps 753 mmHg 63%
09:00 +20°C° 0 mm 4 mps 753 mmHg 61%
10:00 +21°C° 0 mm 4 mps 753 mmHg 60%
11:00 +22°C° 0 mm 4 mps 753 mmHg 59%
12:00 +23°C° 0 mm 4 mps 752 mmHg 58%
13:00 +22°C° 0 mm 4 mps 752 mmHg 62%
14:00 +22°C° 0 mm 4 mps 752 mmHg 65%
15:00 +21°C° 0 mm 4 mps 752 mmHg 68%
16:00 +21°C° 0 mm 3 mps 752 mmHg 70%
17:00 +20°C° 0 mm 3 mps 752 mmHg 72%
18:00 +20°C° 0 mm 2 mps 752 mmHg 74%
19:00 +18°C° 0 mm 2 mps 752 mmHg 79%
20:00 +17°C° 0 mm 2 mps 752 mmHg 83%
21:00 +16°C° 0 mm 1 mps 752 mmHg 87%
22:00 +15°C° 0 mm 1 mps 752 mmHg 88%
23:00 +15°C° 0 mm 1 mps 752 mmHg 89%

Day after tomorrow, 17 June, Thursday

Time Temperature Precipitation Wind Pressure Humidity
00:00 +14°C° 0 mm 1 mps 752 mmHg 90%
01:00 +14°C° 0.3 mm 1 mps 752 mmHg 92%
02:00 +14°C° 0.3 mm 1 mps 752 mmHg 94%
03:00 +14°C° 0.3 mm 1 mps 752 mmHg 95%
04:00 +13°C° 1.3 mm 1 mps 752 mmHg 96%
05:00 +13°C° 1.3 mm 1 mps 752 mmHg 96%
06:00 +13°C° 1.3 mm 1 mps 753 mmHg 97%
07:00 +14°C° 0.4 mm 2 mps 753 mmHg 94%
08:00 +14°C° 0.4 mm 2 mps 753 mmHg 91%
09:00 +14°C° 0.4 mm 2 mps 753 mmHg 88%
10:00 +16°C° 0 mm 2 mps 753 mmHg 80%
11:00 +17°C° 0 mm 3 mps 754 mmHg 72%
12:00 +19°C° 0 mm 3 mps 754 mmHg 64%
13:00 +19°C° 0 mm 4 mps 754 mmHg 64%
14:00 +18°C° 0 mm 4 mps 754 mmHg 64%
15:00 +18°C° 0 mm 4 mps 755 mmHg 64%
16:00 +18°C° 0 mm 4 mps 755 mmHg 65%
17:00 +17°C° 0 mm 4 mps 755 mmHg 65%
18:00 +17°C° 0 mm 4 mps 756 mmHg 66%
19:00 +14°C° 0 mm 3 mps 756 mmHg 70%
20:00 +13°C° 0 mm 3 mps 757 mmHg 74%
21:00 +12°C° 0 mm 2 mps 757 mmHg 79%
22:00 +12°C° 0 mm 2 mps 757 mmHg 81%
23:00 +12°C° 0 mm 2 mps 757 mmHg 83%

18 June, Friday

Time Temperature Precipitation Wind Pressure Humidity
00:00 +10°C° 0 mm 2 mps 758 mmHg 86%
01:00 +10°C° 0 mm 2 mps 758 mmHg 86%
02:00 +10°C° 0 mm 2 mps 758 mmHg 85%
03:00 +10°C° 0 mm 2 mps 758 mmHg 85%
04:00 +12°C° 0 mm 1 mps 758 mmHg 82%
05:00 +12°C° 0 mm 1 mps 758 mmHg 79%
06:00 +13°C° 0 mm 1 mps 758 mmHg 76%
07:00 +14°C° 0 mm 2 mps 758 mmHg 70%
08:00 +15°C° 0 mm 2 mps 758 mmHg 64%
09:00 +16°C° 0 mm 2 mps 757 mmHg 58%
10:00 +17°C° 0 mm 3 mps 757 mmHg 58%
11:00 +17°C° 0 mm 3 mps 757 mmHg 58%
12:00 +18°C° 0 mm 3 mps 757 mmHg 58%
13:00 +17°C° 0.3 mm 3 mps 757 mmHg 66%
14:00 +16°C° 0.3 mm 3 mps 757 mmHg 74%
15:00 +16°C° 0.3 mm 2 mps 757 mmHg 82%
16:00 +14°C° 0.3 mm 3 mps 757 mmHg 84%
17:00 +14°C° 0.3 mm 3 mps 757 mmHg 87%
18:00 +13°C° 0.3 mm 3 mps 757 mmHg 89%
19:00 +12°C° 0 mm 3 mps 757 mmHg 90%
20:00 +13°C° 0 mm 2 mps 757 mmHg 91%
21:00 +12°C° 0 mm 2 mps 757 mmHg 92%
22:00 +12°C° 0 mm 2 mps 758 mmHg 92%
23:00 +11°C° 0 mm 1 mps 758 mmHg 93%

19 June, Saturday

Time Temperature Precipitation Wind Pressure Humidity
00:00 +11°C° 0 mm 1 mps 758 mmHg 94%
01:00 +11°C° 0 mm 1 mps 758 mmHg 94%
02:00 +11°C° 0 mm 1 mps 758 mmHg 94%
03:00 +11°C° 0 mm 1 mps 757 mmHg 94%
04:00 +12°C° 0 mm 1 mps 758 mmHg 92%
05:00 +12°C° 0 mm 1 mps 758 mmHg 90%
06:00 +12°C° 0 mm 2 mps 758 mmHg 88%
07:00 +13°C° 0 mm 2 mps 758 mmHg 85%
08:00 +14°C° 0 mm 2 mps 758 mmHg 81%
09:00 +15°C° 0 mm 2 mps 758 mmHg 77%
10:00 +16°C° 0.1 mm 3 mps 757 mmHg 71%
11:00 +17°C° 0.1 mm 3 mps 757 mmHg 65%
12:00 +19°C° 0.1 mm 4 mps 757 mmHg 59%
13:00 +18°C° 0.1 mm 4 mps 756 mmHg 60%
14:00 +18°C° 0.1 mm 4 mps 756 mmHg 61%
15:00 +17°C° 0.1 mm 5 mps 756 mmHg 63%
16:00 +17°C° 0 mm 5 mps 755 mmHg 65%
17:00 +17°C° 0 mm 5 mps 755 mmHg 68%
18:00 +17°C° 0 mm 5 mps 755 mmHg 70%
19:00 +15°C° 0 mm 5 mps 755 mmHg 75%
20:00 +14°C° 0 mm 5 mps 754 mmHg 80%
21:00 +13°C° 0 mm 5 mps 754 mmHg 85%
22:00 +13°C° 0 mm 5 mps 754 mmHg 85%
23:00 +12°C° 0 mm 5 mps 753 mmHg 86%

20 June, Sunday

Time Temperature Precipitation Wind Pressure Humidity
00:00 +12°C° 0 mm 5 mps 753 mmHg 86%
01:00 +12°C° 0 mm 5 mps 752 mmHg 85%
02:00 +10°C° 0 mm 6 mps 751 mmHg 84%
03:00 +10°C° 0 mm 6 mps 751 mmHg 83%
04:00 +10°C° 0.5 mm 7 mps 750 mmHg 85%
05:00 +10°C° 0.5 mm 7 mps 749 mmHg 88%
06:00 +9°C° 0.5 mm 7 mps 748 mmHg 91%
07:00 +10°C° 2 mm 8 mps 747 mmHg 92%
08:00 +10°C° 2 mm 8 mps 746 mmHg 94%
09:00 +10°C° 2 mm 9 mps 745 mmHg 95%
10:00 +11°C° 0.3 mm 8 mps 744 mmHg 96%
11:00 +11°C° 0.3 mm 6 mps 743 mmHg 97%
12:00 +13°C° 0.3 mm 5 mps 743 mmHg 97%
13:00 +14°C° 0.4 mm 5 mps 743 mmHg 93%
14:00 +15°C° 0.4 mm 6 mps 744 mmHg 89%
15:00 +17°C° 0.4 mm 6 mps 744 mmHg 84%
16:00 +17°C° 0.1 mm 5 mps 744 mmHg 83%
17:00 +17°C° 0.1 mm 5 mps 745 mmHg 82%
18:00 +18°C° 0.1 mm 4 mps 745 mmHg 81%
19:00 +17°C° 0.1 mm 4 mps 745 mmHg 85%
20:00 +16°C° 0.1 mm 3 mps 745 mmHg 90%
21:00 +14°C° 0.1 mm 3 mps 745 mmHg 94%
22:00 +14°C° 0 mm 3 mps 745 mmHg 94%
23:00 +13°C° 0 mm 4 mps 745 mmHg 94%
Show more